TimeMST,TemperatureF,Dew PointF,Humidity,Sea Level PressureIn,VisibilityMPH,Wind Direction,Wind SpeedMPH,Gust SpeedMPH,PrecipitationIn,Events,Conditions,WindDirDegrees,DateUTC
12:55 AM,1.9,-4.0,76,30.32,10.0,SSW,3.5,-,N/A,,Clear,210,2012-12-31 07:55:00
1:55 AM,1.9,-2.9,80,30.30,10.0,Calm,Calm,-,N/A,,Clear,0,2012-12-31 08:55:00
2:55 AM,3.9,-0.9,80,30.28,10.0,Calm,Calm,-,N/A,,Clear,0,2012-12-31 09:55:00
3:55 AM,5.0,-0.0,80,30.30,10.0,Calm,Calm,-,N/A,,Partly Cloudy,0,2012-12-31 10:55:00
5:55 AM,6.1,1.0,80,30.35,10.0,Calm,Calm,-,N/A,,Mostly Cloudy,0,2012-12-31 12:55:00
6:55 AM,7.0,1.0,77,30.37,10.0,Calm,Calm,-,N/A,,Overcast,0,2012-12-31 13:55:00
7:55 AM,3.9,-0.9,80,30.39,10.0,Calm,Calm,-,N/A,,Scattered Clouds,0,2012-12-31 14:55:00
8:55 AM,-0.0,-5.1,79,30.42,10.0,Calm,Calm,-,N/A,,Clear,0,2012-12-31 15:55:00
9:55 AM,5.0,1.9,87,30.43,10.0,Calm,Calm,-,N/A,,Clear,0,2012-12-31 16:55:00
10:55 AM,8.1,1.9,76,30.42,10.0,SSE,4.6,-,N/A,,Clear,150,2012-12-31 17:55:00
11:55 AM,12.0,3.0,67,30.39,10.0,Calm,Calm,-,N/A,,Clear,0,2012-12-31 18:55:00
12:55 PM,15.1,3.9,61,30.35,10.0,Calm,Calm,-,N/A,,Clear,0,2012-12-31 19:55:00
1:55 PM,15.1,5.0,64,30.32,10.0,Calm,Calm,-,N/A,,Clear,0,2012-12-31 20:55:00
2:55 PM,18.0,3.9,54,30.32,10.0,Calm,Calm,-,N/A,,Clear,0,2012-12-31 21:55:00
3:55 PM,18.0,6.1,60,30.32,10.0,Calm,Calm,-,N/A,,Mostly Cloudy,0,2012-12-31 22:55:00
4:55 PM,15.1,5.0,64,30.35,10.0,South,4.6,-,N/A,,Overcast,170,2012-12-31 23:55:00
5:55 PM,12.9,5.0,71,30.35,10.0,Calm,Calm,-,N/A,,Overcast,0,2013-01-01 00:55:00
6:55 PM,3.9,-0.9,80,30.39,10.0,Calm,Calm,-,N/A,,Mostly Cloudy,0,2013-01-01 01:55:00
7:55 PM,7.0,1.0,77,30.40,10.0,SSW,4.6,-,N/A,,Overcast,200,2013-01-01 02:55:00
8:55 PM,8.1,1.9,76,30.43,10.0,Calm,Calm,-,N/A,,Overcast,0,2013-01-01 03:55:00
9:55 PM,10.0,3.0,73,30.43,9.0,South,3.5,-,N/A,,Overcast,170,2013-01-01 04:55:00
10:55 PM,10.9,5.0,77,30.43,10.0,Calm,Calm,-,N/A,,Overcast,0,2013-01-01 05:55:00
11:55 PM,12.9,6.1,74,30.43,10.0,Calm,Calm,-,N/A,,Overcast,0,2013-01-01 06:55:00